TimeCDT,TemperatureF,Dew PointF,Humidity,Sea Level PressureIn,VisibilityMPH,Wind Direction,Wind SpeedMPH,Gust SpeedMPH,PrecipitationIn,Events,Conditions,WindDirDegrees,DateUTC
12:55 AM,40.6,31.5,70,30.30,10.0,NNW,8.1,-,N/A,,Overcast,330,2012-10-07 05:55:00
1:55 AM,40.3,32.4,73,30.32,10.0,North,8.1,-,N/A,,Mostly Cloudy,350,2012-10-07 06:55:00
2:55 AM,39.0,33.8,82,30.32,10.0,North,4.6,-,N/A,,Overcast,360,2012-10-07 07:55:00
3:55 AM,37.8,33.1,83,30.31,10.0,WNW,3.5,-,N/A,,Scattered Clouds,290,2012-10-07 08:55:00
4:55 AM,35.1,33.6,94,30.30,10.0,Calm,Calm,-,N/A,,Clear,0,2012-10-07 09:55:00
5:55 AM,32.7,32.2,98,30.30,10.0,Calm,Calm,-,N/A,,Clear,0,2012-10-07 10:55:00
6:55 AM,32.2,31.8,99,30.30,10.0,Calm,Calm,-,N/A,,Clear,0,2012-10-07 11:55:00
7:55 AM,32.0,31.6,99,30.32,10.0,SSW,3.5,-,N/A,,Clear,210,2012-10-07 12:55:00
8:55 AM,37.6,33.8,86,30.34,10.0,West,4.6,-,N/A,,Clear,260,2012-10-07 13:55:00
9:55 AM,44.2,31.1,60,30.34,10.0,West,8.1,-,N/A,,Clear,280,2012-10-07 14:55:00
10:55 AM,46.9,28.6,49,30.33,10.0,Variable,3.5,-,N/A,,Clear,0,2012-10-07 15:55:00
11:55 AM,48.9,28.6,45,30.32,10.0,SW,6.9,-,N/A,,Clear,230,2012-10-07 16:55:00
12:55 PM,50.4,27.9,42,30.30,10.0,Variable,3.5,-,N/A,,Clear,0,2012-10-07 17:55:00
1:55 PM,52.2,27.7,39,30.26,10.0,Variable,5.8,-,N/A,,Clear,0,2012-10-07 18:55:00
2:55 PM,54.1,27.3,36,30.23,10.0,Calm,Calm,-,N/A,,Clear,0,2012-10-07 19:55:00
3:55 PM,54.5,27.7,36,30.20,5.0,Calm,Calm,-,N/A,,Haze,0,2012-10-07 20:55:00
4:55 PM,54.5,27.0,35,30.18,5.0,Calm,Calm,-,N/A,,Haze,0,2012-10-07 21:55:00
5:55 PM,53.8,26.6,35,30.18,3.0,SSW,4.6,-,N/A,,Haze,200,2012-10-07 22:55:00
6:55 PM,49.1,30.7,49,30.19,6.0,South,3.5,-,N/A,,Haze,190,2012-10-07 23:55:00
7:16 PM,46.4,32.0,57,30.19,5.0,SSW,3.5,-,N/A,,Haze,210,2012-10-08 00:16:00
7:55 PM,46.0,30.0,54,30.20,6.0,SSW,3.5,-,N/A,,Haze,200,2012-10-08 00:55:00
8:55 PM,41.4,31.3,67,30.20,5.0,South,6.9,-,N/A,,Haze,190,2012-10-08 01:55:00
8:56 PM,42.8,32.0,66,30.20,5.0,SSW,5.8,-,N/A,,Haze,200,2012-10-08 01:56:00
9:44 PM,39.2,32.0,75,30.20,5.0,South,6.9,-,N/A,,Haze,190,2012-10-08 02:44:00
9:55 PM,39.4,31.5,73,30.20,5.0,South,6.9,-,N/A,,Haze,190,2012-10-08 02:55:00
10:02 PM,39.2,32.0,75,30.20,5.0,South,6.9,-,N/A,,Haze,190,2012-10-08 03:02:00
10:55 PM,39.0,31.5,74,30.19,5.0,South,6.9,-,N/A,,Haze,190,2012-10-08 03:55:00
11:14 PM,37.4,32.0,81,30.19,5.0,South,8.1,-,N/A,,Haze,190,2012-10-08 04:14:00
11:25 PM,37.4,32.0,81,30.19,5.0,SSW,8.1,-,N/A,,Haze,200,2012-10-08 04:25:00
11:31 PM,37.4,32.0,81,30.19,5.0,SSW,6.9,-,N/A,,Haze,200,2012-10-08 04:31:00
11:55 PM,35.8,31.5,84,30.18,5.0,SSW,6.9,-,N/A,,Haze,200,2012-10-08 04:55:00